When you browse on this site, cookies collect data to enhance your experience and personalize the content and advertising you see.
Visit our Privacy Policy to learn more. By continuing to use the site, you agree to this use of cookies and data.
  • In Austria
  • List of Countries
  • For 7 days
  • Water Temperature
  • Weather Map
  • News
  • Weather Widgets
  • user-avatar
    Login

    Hourly Weather Tizayuca

    Today, 6 December, Friday

    Time Temperature Precipitation Wind Pressure Humidity
    00:00 +13°C° 0 mm 1 mps 581 mmHg 62%
    01:00 +12°C° 0 mm 1 mps 581 mmHg 62%
    02:00 +11°C° 0 mm 0 mps 580 mmHg 62%
    03:00 +10°C° 0 mm 0 mps 580 mmHg 61%
    04:00 +10°C° 0 mm 0 mps 580 mmHg 61%
    05:00 +9°C° 0 mm 0 mps 580 mmHg 60%
    06:00 +11°C° 0 mm 0 mps 581 mmHg 52%
    07:00 +13°C° 0 mm 0 mps 583 mmHg 45%
    08:00 +14°C° 0 mm 0 mps 584 mmHg 37%
    09:00 +18°C° 0 mm 1 mps 584 mmHg 30%
    10:00 +20°C° 0 mm 1 mps 585 mmHg 23%
    11:00 +21°C° 0 mm 2 mps 586 mmHg 16%
    12:00 +22°C° 0 mm 3 mps 585 mmHg 15%
    13:00 +22°C° 0 mm 4 mps 585 mmHg 14%
    14:00 +23°C° 0 mm 5 mps 585 mmHg 14%
    15:00 +21°C° 0 mm 4 mps 585 mmHg 21%
    16:00 +19°C° 0 mm 4 mps 584 mmHg 28%
    17:00 +17°C° 0 mm 4 mps 583 mmHg 35%
    18:00 +16°C° 0 mm 3 mps 583 mmHg 43%
    19:00 +13°C° 0 mm 3 mps 583 mmHg 50%
    20:00 +13°C° 0 mm 2 mps 583 mmHg 58%
    21:00 +12°C° 0 mm 2 mps 583 mmHg 61%
    22:00 +12°C° 0 mm 2 mps 583 mmHg 64%
    23:00 +11°C° 0 mm 1 mps 583 mmHg 66%

    Tomorrow, 7 December, Saturday

    Time Temperature Precipitation Wind Pressure Humidity
    00:00 +10°C° 0 mm 1 mps 582 mmHg 68%
    01:00 +10°C° 0 mm 1 mps 582 mmHg 70%
    02:00 +9°C° 0 mm 1 mps 582 mmHg 71%
    03:00 +9°C° 0 mm 1 mps 582 mmHg 73%
    04:00 +8°C° 0 mm 1 mps 582 mmHg 74%
    05:00 +8°C° 0 mm 1 mps 581 mmHg 76%
    06:00 +9°C° 0 mm 1 mps 582 mmHg 68%
    07:00 +9°C° 0 mm 0 mps 583 mmHg 61%
    08:00 +10°C° 0 mm 0 mps 584 mmHg 53%
    09:00 +13°C° 0 mm 0 mps 584 mmHg 43%
    10:00 +16°C° 0 mm 1 mps 585 mmHg 34%
    11:00 +19°C° 0 mm 1 mps 585 mmHg 24%
    12:00 +20°C° 0 mm 1 mps 585 mmHg 22%
    13:00 +21°C° 0 mm 1 mps 585 mmHg 20%
    14:00 +22°C° 0 mm 1 mps 585 mmHg 18%
    15:00 +20°C° 0 mm 2 mps 584 mmHg 25%
    16:00 +18°C° 0 mm 2 mps 584 mmHg 31%
    17:00 +17°C° 0 mm 3 mps 583 mmHg 38%
    18:00 +16°C° 0 mm 3 mps 583 mmHg 47%
    19:00 +15°C° 0 mm 2 mps 583 mmHg 57%
    20:00 +13°C° 0 mm 2 mps 583 mmHg 67%
    21:00 +13°C° 0 mm 1 mps 583 mmHg 72%
    22:00 +12°C° 0 mm 1 mps 582 mmHg 77%
    23:00 +12°C° 0 mm 1 mps 582 mmHg 82%

    Day after tomorrow, 8 December, Sunday

    Time Temperature Precipitation Wind Pressure Humidity
    00:00 +11°C° 0 mm 1 mps 582 mmHg 83%
    01:00 +10°C° 0 mm 0 mps 581 mmHg 83%
    02:00 +9°C° 0 mm 0 mps 581 mmHg 84%
    03:00 +9°C° 0 mm 0 mps 580 mmHg 84%
    04:00 +8°C° 0 mm 0 mps 580 mmHg 83%
    05:00 +8°C° 0 mm 0 mps 580 mmHg 83%
    06:00 +10°C° 0 mm 0 mps 581 mmHg 75%
    07:00 +11°C° 0 mm 0 mps 582 mmHg 67%
    08:00 +13°C° 0 mm 0 mps 583 mmHg 59%
    09:00 +15°C° 0 mm 0 mps 583 mmHg 48%
    10:00 +19°C° 0 mm 1 mps 584 mmHg 38%
    11:00 +21°C° 0 mm 1 mps 584 mmHg 27%
    12:00 +22°C° 0 mm 1 mps 584 mmHg 24%
    13:00 +23°C° 0 mm 2 mps 584 mmHg 20%
    14:00 +24°C° 0 mm 2 mps 584 mmHg 17%
    15:00 +21°C° 0 mm 2 mps 583 mmHg 21%
    16:00 +20°C° 0 mm 2 mps 582 mmHg 25%
    17:00 +18°C° 0 mm 3 mps 582 mmHg 29%
    18:00 +17°C° 0 mm 2 mps 581 mmHg 32%
    19:00 +16°C° 0 mm 1 mps 581 mmHg 36%
    20:00 +15°C° 0 mm 1 mps 581 mmHg 39%
    21:00 +14°C° 0 mm 1 mps 581 mmHg 41%
    22:00 +13°C° 0 mm 0 mps 581 mmHg 43%
    23:00 +12°C° 0 mm 0 mps 580 mmHg 45%

    9 December, Monday

    Time Temperature Precipitation Wind Pressure Humidity
    00:00 +12°C° 0 mm 0 mps 580 mmHg 46%
    01:00 +11°C° 0 mm 0 mps 580 mmHg 47%
    02:00 +11°C° 0 mm 0 mps 579 mmHg 48%
    03:00 +10°C° 0 mm 0 mps 579 mmHg 48%
    04:00 +10°C° 0 mm 0 mps 579 mmHg 48%
    05:00 +10°C° 0 mm 0 mps 579 mmHg 48%
    06:00 +11°C° 0 mm 0 mps 580 mmHg 44%
    07:00 +13°C° 0 mm 0 mps 581 mmHg 39%
    08:00 +15°C° 0 mm 0 mps 582 mmHg 34%
    09:00 +17°C° 0 mm 0 mps 583 mmHg 29%
    10:00 +20°C° 0 mm 1 mps 583 mmHg 25%
    11:00 +22°C° 0 mm 1 mps 583 mmHg 20%
    12:00 +23°C° 0 mm 1 mps 583 mmHg 18%
    13:00 +24°C° 0 mm 1 mps 582 mmHg 16%
    14:00 +24°C° 0 mm 1 mps 582 mmHg 13%
    15:00 +23°C° 0 mm 1 mps 582 mmHg 17%
    16:00 +21°C° 0 mm 1 mps 581 mmHg 20%
    17:00 +18°C° 0 mm 0 mps 580 mmHg 23%
    18:00 +19°C° 0 mm 1 mps 581 mmHg 29%
    19:00 +18°C° 0 mm 1 mps 581 mmHg 35%
    20:00 +16°C° 0 mm 1 mps 581 mmHg 42%
    21:00 +16°C° 0 mm 1 mps 581 mmHg 47%
    22:00 +15°C° 0 mm 1 mps 580 mmHg 52%
    23:00 +15°C° 0 mm 1 mps 580 mmHg 57%

    10 December, Tuesday

    Time Temperature Precipitation Wind Pressure Humidity
    00:00 +14°C° 0 mm 1 mps 580 mmHg 61%
    01:00 +14°C° 0 mm 1 mps 580 mmHg 65%
    02:00 +13°C° 0 mm 1 mps 579 mmHg 69%
    03:00 +13°C° 0 mm 1 mps 579 mmHg 71%
    04:00 +12°C° 0 mm 1 mps 579 mmHg 73%
    05:00 +12°C° 0 mm 1 mps 579 mmHg 75%
    06:00 +13°C° 0 mm 1 mps 580 mmHg 69%
    07:00 +14°C° 0 mm 0 mps 582 mmHg 63%
    08:00 +15°C° 0 mm 0 mps 583 mmHg 56%
    09:00 +19°C° 0 mm 1 mps 583 mmHg 49%
    10:00 +21°C° 0 mm 1 mps 584 mmHg 41%
    11:00 +22°C° 0 mm 1 mps 585 mmHg 33%
    12:00 +23°C° 0 mm 1 mps 585 mmHg 30%
    13:00 +24°C° 0 mm 2 mps 585 mmHg 28%
    14:00 +24°C° 0 mm 2 mps 585 mmHg 25%
    15:00 +21°C° 0 mm 3 mps 584 mmHg 39%
    16:00 +19°C° 0 mm 4 mps 583 mmHg 52%
    17:00 +15°C° 0 mm 5 mps 583 mmHg 66%
    18:00 +15°C° 0 mm 5 mps 583 mmHg 68%
    19:00 +14°C° 0 mm 4 mps 583 mmHg 70%
    20:00 +13°C° 0 mm 4 mps 584 mmHg 73%
    21:00 +13°C° 0 mm 4 mps 584 mmHg 72%
    22:00 +13°C° 0 mm 4 mps 584 mmHg 71%
    23:00 +13°C° 0 mm 4 mps 584 mmHg 70%

    11 December, Wednesday

    Time Temperature Precipitation Wind Pressure Humidity
    00:00 +12°C° 0 mm 3 mps 583 mmHg 72%
    01:00 +12°C° 0 mm 3 mps 583 mmHg 73%
    02:00 +12°C° 0 mm 3 mps 583 mmHg 74%
    03:00 +11°C° 0 mm 3 mps 583 mmHg 75%
    04:00 +11°C° 0 mm 3 mps 583 mmHg 75%
    05:00 +12°C° 0 mm 2 mps 583 mmHg 75%
    06:00 +12°C° 0 mm 2 mps 583 mmHg 73%
    07:00 +12°C° 0 mm 2 mps 584 mmHg 70%
    08:00 +13°C° 0 mm 2 mps 584 mmHg 67%
    09:00 +14°C° 0 mm 2 mps 585 mmHg 60%
    10:00 +16°C° 0 mm 2 mps 585 mmHg 53%
    11:00 +17°C° 0 mm 2 mps 585 mmHg 47%
    12:00 +18°C° 0 mm 2 mps 585 mmHg 43%
    13:00 +20°C° 0 mm 1 mps 585 mmHg 39%
    14:00 +21°C° 0 mm 1 mps 585 mmHg 35%
    15:00 +18°C° 0 mm 2 mps 584 mmHg 43%
    16:00 +17°C° 0 mm 2 mps 584 mmHg 51%
    17:00 +16°C° 0 mm 3 mps 583 mmHg 59%
    18:00 +15°C° 0 mm 2 mps 583 mmHg 65%
    19:00 +13°C° 0 mm 2 mps 583 mmHg 70%
    20:00 +12°C° 0 mm 1 mps 583 mmHg 76%
    21:00 +12°C° 0 mm 1 mps 583 mmHg 78%
    22:00 +12°C° 0 mm 1 mps 583 mmHg 80%
    23:00 +11°C° 0 mm 1 mps 582 mmHg 82%
    Show more